Location: Saint-Pierre
(44.7043°N, 4.2627°E)
Time: 21:01:30
(UTC+00:00)

Daily predictions for brighter satellites

Satellite Brightness Start Highest point End
(mag) Time Altitude Azimuth Time Altitude Azimuth Time Altitude Azimuth
Cosmos 372 Rocket 4.0 17:58:49 10° S 18:04:00 68° ESE 18:09:12 10° NNE
Cosmos 1707 2.9 18:01:57 10° N 18:05:41 47° ENE 18:09:23 10° SSE
CZ-2C R/B 3.4 18:04:25 10° SW 18:06:41 15° SSW 18:08:52 10° SSE
NOSS 3-2 (C) 4.4 17:59:37 10° NNW 18:06:47 50° NE 18:14:52 10° ESE
Cosmos 1844 4.3 18:04:30 10° S 18:09:37 36° ESE 18:14:43 10° NE
ISS -2.6 18:07:19 10° W 18:10:32 40° NNW 18:13:45 10° NE
NOSS 3-4 (A) 4.4 18:06:33 10° SSE 18:11:02 23° ESE 18:15:39 10° ENE
NOSS 3-4 (C) 4.4 18:06:41 10° SSE 18:11:08 23° ESE 18:15:44 10° ENE
USA 186 3.9 18:11:18 10° E 18:12:43 12° ENE 18:14:08 10° NE
Meteor 1-12 Rocket 4.4 18:07:45 10° S 18:13:29 56° E 18:19:07 10° NNE
Cosmos 1300 Rocket 3.7 18:14:33 10° S 18:18:50 54° E 18:23:10 10° NNE
Okean 1 Rocket 4.3 18:18:55 10° SE 18:22:15 21° E 18:25:35 10° NE
Sich 1 Rocket 3.7 18:18:38 10° S 18:23:10 85° WNW 18:27:45 10° N
Cosmos 2298 Rocket 4.0 18:20:00 10° S 18:25:17 71° ESE 18:30:36 10° NNE
CENTAUR R/B 3.4 18:18:02 10° NNW 18:25:56 59° NE 18:34:36 10° SE
Cosmos 1833 Rocket 4.3 18:23:26 10° N 18:27:06 17° NE 18:30:12 12° E
CSL-04 Debris 4.1 18:24:16 10° SSE 18:29:37 73° ENE 18:35:00 10° N
Helios 1A Rocket 4.5 18:27:39 10° S 18:31:30 39° W 18:35:25 10° NNW
CSL-04 Rocket 3.7 18:26:09 10° SSE 18:31:34 73° ENE 18:37:05 10° N
ATLAS 2AS CENTAUR R/B 3.5 18:26:15 10° S 18:33:18 37° ESE 18:40:22 10° NE
Okean 2 Rocket 3.0 18:28:53 10° S 18:33:22 79° E 18:37:51 10° N
YAOGAN 1 2.8 18:29:54 10° S 18:34:13 72° W 18:38:33 10° NNW
Cosmos 1025 Rocket 3.0 18:30:44 10° N 18:35:08 73° E 18:39:32 10° SSE
ATLAS 3B R/B 3.8 18:32:00 10° NNW 18:37:52 29° NE 18:42:35 15° E
Abrixas rocket 2.0 18:37:58 10° WNW 18:40:47 58° NNE 18:42:11 25° E
Cosmos 1513 Rocket 4.5 18:34:37 10° S 18:40:52 89° E 18:47:03 10° N
SWAS 4.5 18:36:37 10° NNW 18:40:53 62° ENE 18:44:39 13° SE
CREW DRAGON DEMO-1 DEB 3.2 18:39:52 10° NW 18:42:50 50° NNE 18:44:16 25° E
Cosmos 1536 Rocket 3.5 18:40:28 10° N 18:44:56 69° E 18:49:23 10° SSE
Cosmos 1125 Rocket 3.5 18:40:40 10° S 18:45:55 66° ESE 18:51:13 10° NNE
SJ-6B 3.7 18:48:31 23° E 18:49:35 27° ENE 18:52:49 10° N
CZ-4 R/B 3.1 18:47:58 10° SSW 18:51:52 37° W 18:55:47 10° NNW
SJ-11-01 4.4 18:48:08 10° S 18:52:50 81° WSW 18:57:34 10° NNW
Cosmos 2150 Rocket 4.3 18:47:29 10° SSW 18:52:52 75° WNW 18:58:21 10° NNE
CZ-2C R/B 3.6 18:48:35 10° S 18:53:53 68° W 18:59:32 10° NNW
Cosmos 1464 Rocket 4.2 18:48:07 10° SSW 18:54:14 77° W 19:00:28 10° N
USA 238 DEB 4.0 18:48:02 10° NW 18:55:17 78° SW 19:02:48 10° SSE
USA 238 4.0 18:48:09 10° NW 18:55:24 79° SW 19:02:55 10° SSE
Cosmos 2285 Rocket 3.9 18:50:23 10° S 18:56:36 66° ESE 19:02:54 10° NNE
Cosmos 1674 2.7 18:53:28 10° N 18:57:17 61° E 19:00:17 16° SSE
Cosmos 2026 Rocket 4.5 18:52:04 10° N 18:58:04 40° ENE 19:02:16 19° SE
Cosmos 1092 Rocket 4.1 18:52:18 10° N 18:58:19 52° ENE 19:04:17 10° SSE
FREGAT/IRIS 4.3 19:04:41 17° NNE 19:04:41 17° NNE 19:05:37 10° N
MOS 1 Rocket 3.1 18:59:27 10° N 19:03:50 85° W 19:08:06 10° SSW
TSX-5 4.0 19:04:11 10° S 19:07:50 52° ESE 19:12:27 10° NE
ARGOS 3.2 19:04:06 10° SSE 19:09:28 84° WSW 19:14:53 10° NNW
Cosmos 1340 Rocket 4.1 19:15:11 24° NE 19:15:11 24° NE 19:17:14 10° NNE
CZ-2C R/B 2.8 19:08:38 10° NNE 19:14:09 57° E 19:19:39 10° S
Cosmos 1733 3.2 19:13:47 32° SSE 19:15:17 54° E 19:19:02 10° NNE
Cosmos 2151 Rocket 4.5 19:11:44 10° SSW 19:16:06 51° WNW 19:20:31 10° N
MOS 1 4.3 19:13:05 21° SE 19:16:54 63° ENE 19:22:33 10° N
Lacrosse 5 rocket 3.6 19:15:41 10° NNW 19:18:47 18° NNE 19:20:43 14° NE
Cosmos 2082 Rocket 3.4 19:15:57 10° N 19:20:26 23° NE 19:21:17 23° ENE
Shenzhou-11 Module 4.3 19:20:23 10° SW 19:20:33 11° SW 19:20:33 11° SW
BREEZE-M DEB (TANK) 3.6 19:19:32 10° WNW 19:22:52 56° SSW 19:27:36 24° SE
BREEZE-M R/B 4.1 19:12:08 10° WSW 19:23:01 74° NNW 19:24:25 35° NE
DMSP B5D2-2 4.1 19:18:44 10° NNE 19:23:58 58° E 19:29:10 10° S
Cosmos 494 Rocket 4.3 19:20:22 10° NNW 19:25:35 65° WSW 19:29:53 15° S
Meteor 1-15 Rocket 4.5 19:21:06 10° SSW 19:26:44 72° WNW 19:32:31 10° N
Cosmos 1805 3.4 19:23:17 10° SSW 19:27:11 75° W 19:31:07 10° N
OBJECT-B 2.5 19:28:48 23° NNE 19:28:48 23° NNE 19:30:20 10° N
Ariane Rocket 2.9 19:28:05 23° SSE 19:31:20 88° WSW 19:36:28 10° NNW
SL-08 RB Rocket 3.9 19:27:52 16° S 19:31:26 68° WSW 19:35:58 10° NNW
Milstar 3 Cent rocket 4.0 19:27:38 10° SW 19:31:39 16° S 19:32:39 15° S
H-2A R/B 3.4 19:28:18 10° SSW 19:32:56 38° W 19:37:42 10° NNW
USA 234 4.2 19:38:14 26° SSE 19:38:14 26° SSE 19:41:52 10° S
Cosmos 1269 Rocket 3.9 19:32:13 10° NNW 19:37:35 90° ENE 19:39:33 40° SSE
Cosmos 1626 2.3 19:38:52 10° N 19:42:02 62° N 19:42:02 62° N
MetOp-A 4.1 19:40:20 33° SSE 19:42:52 88° WSW 19:48:15 10° NNW
USA 186 3.0 19:42:34 37° WSW 19:43:01 40° W 19:46:10 10° NNW
Cosmos 1844 Rocket 4.3 19:41:00 10° WSW 19:46:04 35° NW 19:51:11 10° N
COSMOS 2406 3.1 19:41:07 10° NNW 19:46:48 74° ENE 19:47:56 57° SE
ISS -1.8 19:45:07 10° WNW 19:47:46 24° N 19:47:46 24° N
Cosmos 2278 Rocket 2.7 19:44:23 10° S 19:51:32 42° ENE 19:55:27 10° NNE
Lacrosse 4 Rocket 2.9 19:50:31 10° NNW 19:52:52 26° NNE 19:52:52 26° NNE
Meteor 1-22 Rocket 4.3 19:48:40 10° SSW 19:54:34 84° W 20:00:42 10° N
Meteor 2-5 Rocket 4.2 19:51:28 10° NNW 19:57:03 60° W 20:00:46 22° SSW
Cosmos 909 Rocket 4.5 19:53:05 10° NNW 19:59:18 44° NE 19:59:55 43° ENE
Meteor 1-24 Rocket 3.8 19:53:50 10° NNW 19:59:25 74° W 20:01:37 39° S
Okean 1 Rocket 4.5 19:55:40 10° SW 19:59:52 39° WNW 20:04:05 10° N
NOSS 3-4 (A) 3.7 19:55:22 10° SW 20:01:14 67° NW 20:07:34 10° NE
NOSS 3-4 (C) 3.6 19:55:28 10° SW 20:01:20 67° NW 20:07:39 10° NE
Resurs 01 Rocket 2.5 20:03:26 41° NNE 20:03:26 41° NNE 20:06:30 10° N
SL-14 R/B 4.0 19:58:37 10° NNW 20:01:55 53° NW 20:01:55 53° NW
Meteor 2-19 Rocket 4.3 19:57:32 10° N 20:03:38 64° E 20:03:47 64° E
Cosmos 1833 Rocket 2.5 20:06:13 10° NNW 20:11:54 85° ENE 20:11:54 85° ENE
Cosmos 2251 Rocket 4.1 20:09:31 10° NNW 20:13:44 47° NNE 20:13:44 47° NNE
CENTAUR R/B 4.1 20:09:00 10° NW 20:16:42 44° WSW 20:21:59 22° S
ARIANE 5 R/B 4.4 20:20:05 23° N 20:20:05 23° N 20:21:52 10° N
SPOT 3 Rocket 3.7 20:20:50 69° W 20:20:50 69° W 20:25:53 10° NNW
ATLAS 2AS CENTAUR R/B 3.4 20:16:09 10° SW 20:24:01 63° NW 20:31:50 10° NNE
ATLAS 3B R/B 2.6 20:22:23 10° NW 20:29:19 83° SW 20:29:50 77° S
Cosmos 1655 Rocket 4.0 20:32:04 10° N 20:37:50 76° NNW 20:37:50 76° NNW
Lacrosse 5 rocket 3.9 20:54:39 10° NW 20:56:20 21° NNW 20:56:20 21° NNW
Cosmos 2082 Rocket 3.3 20:59:24 10° NNW 21:03:08 41° NW 21:03:08 41° NW
Terra 4.4 21:21:44 15° N 21:21:44 15° N 21:22:30 10° N
Cosmos 2278 Rocket 4.1 21:33:01 23° WNW 21:34:22 26° NW 21:39:03 10° N
